^^
Datos históricos de la estación: Murcia-Puente Tocinos
Diario Informe para Agosto 13, 2019 Unidades:  Métrico    Inglés   Ambas
Diario Semanal Mensual Anual Configurable
  Máximo: Mínimo: Media:
Temperatura: 29.0 °C 24.6 °C 26.1 °C
Punto de rocio: 22.2 °C 16.3 °C 19.9 °C
Humedad: 84% 47% 70%
Velocidad viento: 22.5km/h 0.0km/h 10.6km/h
Racha viento: 38.9km/h - -
Viento- - ENE
Presión: 1017.4 hPa 1014.3 hPa -
Precipitación: 0.0 mm    
Historical Graphs
 
 
Tabla de datos para Agosto 13, 2019
Hora Temperatura Punto de rocio Presión Viento Velocidad viento Racha viento Humedad Intensidad lluvia(por hora) Nubes
00:04 26.0 °C 22.1 °C 1015.4 hPa NNE 9.5 km/h 13.0 km/h 79% 0.0 mm CLR
00:09 26.1 °C 22.2 °C 1015.4 hPa NE 9.5 km/h 9.3 km/h 79% 0.0 mm CLR
00:14 26.1 °C 22.2 °C 1015.4 hPa ENE 9.5 km/h 10.0 km/h 79% 0.0 mm CLR
00:19 26.1 °C 21.9 °C 1015.4 hPa NE 6.4 km/h 13.0 km/h 78% 0.0 mm CLR
00:24 26.0 °C 21.9 °C 1015.4 hPa ENE 6.4 km/h 11.1 km/h 78% 0.0 mm CLR
00:29 25.9 °C 22.0 °C 1015.4 hPa NE 10.0 km/h 14.8 km/h 79% 0.0 mm CLR
00:30 25.9 °C 22.0 °C 1015.4 hPa North 10.0 km/h 13.0 km/h 79% 0.0 mm CLR
00:30 25.9 °C 22.0 °C 1015.4 hPa NNE 10.0 km/h 14.0 km/h 79% 0.0 mm CLR
00:34 25.9 °C 22.0 °C 1015.5 hPa East 10.0 km/h 10.3 km/h 79% 0.0 mm CLR
00:42 25.9 °C 22.0 °C 1015.5 hPa ENE 9.5 km/h 7.4 km/h 79% 0.0 mm CLR
00:50 25.9 °C 22.0 °C 1015.6 hPa NE 7.6 km/h 11.9 km/h 79% 0.0 mm CLR
00:59 25.8 °C 21.9 °C 1015.6 hPa NNE 7.6 km/h 13.0 km/h 79% 0.0 mm CLR
01:01 25.8 °C 21.9 °C 1015.6 hPa NE 7.6 km/h 7.4 km/h 79% 0.0 mm CLR
01:06 25.8 °C 22.1 °C 1015.7 hPa NNE 7.6 km/h 9.5 km/h 80% 0.0 mm CLR
01:15 25.7 °C 22.2 °C 1015.7 hPa NE 6.9 km/h 13.0 km/h 81% 0.0 mm CLR
01:22 25.7 °C 22.2 °C 1015.7 hPa NE 7.6 km/h 11.1 km/h 81% 0.0 mm CLR
01:29 25.6 °C 22.1 °C 1015.7 hPa NNE 6.9 km/h 14.8 km/h 81% 0.0 mm CLR
01:34 25.6 °C 22.1 °C 1015.7 hPa North 6.9 km/h 7.4 km/h 81% 0.0 mm CLR
01:39 25.6 °C 22.1 °C 1015.7 hPa NNE 6.9 km/h 11.1 km/h 81% 0.0 mm CLR
01:44 25.5 °C 22.0 °C 1015.7 hPa NE 6.9 km/h 10.0 km/h 81% 0.0 mm CLR
01:49 25.4 °C 21.9 °C 1015.7 hPa ENE 7.6 km/h 14.8 km/h 81% 0.0 mm CLR
01:54 25.4 °C 21.9 °C 1015.7 hPa ENE 7.6 km/h 8.7 km/h 81% 0.0 mm CLR
01:59 25.4 °C 21.9 °C 1015.7 hPa NE 6.9 km/h 13.0 km/h 81% 0.0 mm CLR
02:04 25.4 °C 21.9 °C 1015.7 hPa NE 6.9 km/h 9.3 km/h 81% 0.0 mm CLR
02:09 25.3 °C 21.6 °C 1015.7 hPa NNE 6.9 km/h 11.1 km/h 80% 0.0 mm CLR
02:14 25.3 °C 21.6 °C 1015.7 hPa NNE 6.9 km/h 13.0 km/h 80% 0.0 mm CLR
02:19 25.2 °C 21.5 °C 1015.5 hPa North 7.6 km/h 9.3 km/h 80% 0.0 mm CLR
02:24 25.2 °C 21.5 °C 1015.5 hPa NNE 7.6 km/h 9.3 km/h 80% 0.0 mm CLR
02:29 25.2 °C 21.5 °C 1015.5 hPa NNE 6.4 km/h 8.4 km/h 80% 0.0 mm CLR
02:34 25.1 °C 21.4 °C 1015.4 hPa NE 6.4 km/h 11.1 km/h 80% 0.0 mm CLR
02:39 25.1 °C 21.4 °C 1015.4 hPa NE 7.6 km/h 13.0 km/h 80% 0.0 mm CLR
02:44 25.0 °C 21.3 °C 1015.4 hPa NNE 7.6 km/h 11.1 km/h 80% 0.0 mm CLR
02:49 25.0 °C 21.3 °C 1015.4 hPa NE 6.4 km/h 8.7 km/h 80% 0.0 mm CLR
02:54 24.9 °C 21.2 °C 1015.4 hPa NE 6.4 km/h 9.3 km/h 80% 0.0 mm CLR
02:59 24.9 °C 21.2 °C 1015.4 hPa NE 6.9 km/h 9.3 km/h 80% 0.0 mm CLR
03:04 24.9 °C 21.2 °C 1015.1 hPa NE 6.9 km/h 11.1 km/h 80% 0.0 mm CLR
03:09 24.9 °C 21.2 °C 1015.1 hPa NNE 7.6 km/h 9.3 km/h 80% 0.0 mm CLR
03:14 24.9 °C 21.2 °C 1015.1 hPa NNE 7.6 km/h 9.3 km/h 80% 0.0 mm CLR
03:19 24.9 °C 21.2 °C 1015.0 hPa NNE 6.4 km/h 11.1 km/h 80% 0.0 mm CLR
03:24 24.9 °C 21.2 °C 1015.0 hPa NNE 6.4 km/h 9.3 km/h 80% 0.0 mm CLR
03:29 24.8 °C 21.1 °C 1015.0 hPa NE 6.9 km/h 11.1 km/h 80% 0.0 mm CLR
03:34 24.8 °C 21.1 °C 1014.6 hPa NE 6.9 km/h 9.3 km/h 80% 0.0 mm CLR
03:39 24.8 °C 21.3 °C 1014.6 hPa NNE 6.4 km/h 5.8 km/h 81% 0.0 mm CLR
03:44 24.8 °C 21.3 °C 1014.6 hPa NNE 6.4 km/h 3.9 km/h 81% 0.0 mm CLR
03:49 24.8 °C 21.1 °C 1014.6 hPa NNE 3.2 km/h   80% 0.0 mm CLR
03:54 24.8 °C 21.1 °C 1014.6 hPa NW 3.2 km/h 5.6 km/h 80% 0.0 mm CLR
03:59 24.8 °C 21.1 °C 1014.6 hPa NW 2.9 km/h 7.4 km/h 80% 0.0 mm CLR
04:04 24.8 °C 21.1 °C 1014.5 hPa NNW 2.9 km/h 7.4 km/h 80% 0.0 mm CLR
04:09 24.8 °C 20.9 °C 1014.5 hPa NW 4.7 km/h 5.6 km/h 79% 0.0 mm CLR
04:14 24.8 °C 20.9 °C 1014.5 hPa WNW 4.7 km/h 7.4 km/h 79% 0.0 mm CLR
04:19 24.7 °C 21.0 °C 1014.5 hPa NW 3.9 km/h 7.4 km/h 80% 0.0 mm CLR
04:24 24.7 °C 21.0 °C 1014.5 hPa NNW 3.9 km/h 5.0 km/h 80% 0.0 mm CLR
04:29 24.7 °C 21.0 °C 1014.5 hPa WNW 3.9 km/h 8.4 km/h 80% 0.0 mm CLR
04:34 24.7 °C 21.0 °C 1014.3 hPa NW 3.9 km/h 5.6 km/h 80% 0.0 mm CLR
04:39 24.7 °C 21.0 °C 1014.3 hPa NNW 4.7 km/h 7.4 km/h 80% 0.0 mm CLR
04:44 24.7 °C 21.0 °C 1014.3 hPa NW 4.7 km/h 5.6 km/h 80% 0.0 mm CLR
04:49 24.7 °C 21.0 °C 1014.3 hPa NW 3.9 km/h 6.9 km/h 80% 0.0 mm CLR
04:54 24.7 °C 20.8 °C 1014.3 hPa NW 3.9 km/h 7.4 km/h 79% 0.0 mm CLR
04:59 24.7 °C 20.8 °C 1014.3 hPa NW 3.2 km/h 3.7 km/h 79% 0.0 mm CLR
05:04 24.7 °C 21.0 °C 1014.3 hPa NW 3.2 km/h 5.6 km/h 80% 0.0 mm CLR
05:09 24.7 °C 20.8 °C 1014.3 hPa Calm     79% 0.0 mm CLR
05:14 24.7 °C 20.8 °C 1014.3 hPa Calm   7.4 km/h 79% 0.0 mm CLR
05:19 24.7 °C 20.8 °C 1014.4 hPa NW 2.3 km/h 5.6 km/h 79% 0.0 mm CLR
05:24 24.7 °C 20.8 °C 1014.4 hPa NW 2.3 km/h   79% 0.0 mm CLR
05:29 24.7 °C 20.8 °C 1014.4 hPa NW 2.3 km/h 5.6 km/h 79% 0.0 mm CLR
05:34 24.7 °C 20.8 °C 1014.4 hPa NW 2.3 km/h 3.7 km/h 79% 0.0 mm CLR
05:39 24.8 °C 20.9 °C 1014.4 hPa NW 2.3 km/h   79% 0.0 mm CLR
05:44 24.8 °C 20.9 °C 1014.4 hPa NW 2.3 km/h   79% 0.0 mm CLR
05:49 24.8 °C 20.9 °C 1014.4 hPa Calm     79% 0.0 mm CLR
05:54 24.8 °C 20.9 °C 1014.4 hPa Calm     79% 0.0 mm CLR
05:59 24.8 °C 20.9 °C 1014.4 hPa Calm     79% 0.0 mm CLR
06:04 24.8 °C 20.9 °C 1014.5 hPa Calm     79% 0.0 mm CLR
06:09 24.8 °C 20.9 °C 1014.5 hPa Calm     79% 0.0 mm CLR
06:14 24.8 °C 20.9 °C 1014.5 hPa Calm     79% 0.0 mm CLR
06:19 24.8 °C 20.9 °C 1014.4 hPa Calm   1.9 km/h 79% 0.0 mm CLR
06:24 24.8 °C 20.9 °C 1014.4 hPa Calm   7.4 km/h 79% 0.0 mm CLR
06:29 24.8 °C 20.9 °C 1014.4 hPa NW 2.3 km/h 4.7 km/h 79% 0.0 mm CLR
06:34 24.8 °C 20.9 °C 1014.5 hPa NW 2.3 km/h 3.7 km/h 79% 0.0 mm CLR
06:39 24.8 °C 20.9 °C 1014.5 hPa NW 3.2 km/h 5.6 km/h 79% 0.0 mm CLR
06:44 24.7 °C 20.8 °C 1014.5 hPa NW 3.2 km/h   79% 0.0 mm CLR
06:49 24.7 °C 20.8 °C 1014.5 hPa Calm   5.8 km/h 79% 0.0 mm CLR
06:54 24.7 °C 20.8 °C 1014.5 hPa Calm   3.7 km/h 79% 0.0 mm CLR
06:59 24.6 °C 20.7 °C 1014.5 hPa North 3.2 km/h 7.4 km/h 79% 0.0 mm CLR
07:04 24.6 °C 20.7 °C 1015.0 hPa NE 3.2 km/h 9.3 km/h 79% 0.0 mm CLR
07:09 24.7 °C 19.3 °C 1015.0 hPa NNE 6.4 km/h 14.8 km/h 72% 0.0 mm CLR
07:14 24.9 °C 19.1 °C 1015.0 hPa North 6.4 km/h 13.0 km/h 70% 0.0 mm CLR
07:19 24.9 °C 19.1 °C 1015.0 hPa NNE 10.0 km/h 22.2 km/h 70% 0.0 mm CLR
07:24 24.9 °C 19.1 °C 1015.0 hPa NNE 10.0 km/h 11.1 km/h 70% 0.0 mm CLR
07:29 24.9 °C 19.1 °C 1015.0 hPa NNE 10.3 km/h 16.7 km/h 70% 0.0 mm CLR
07:34 24.8 °C 19.2 °C 1015.2 hPa NE 10.3 km/h 11.1 km/h 71% 0.0 mm CLR
07:39 24.8 °C 19.2 °C 1015.2 hPa NNE 9.5 km/h 11.1 km/h 71% 0.0 mm CLR
07:44 24.7 °C 19.1 °C 1015.2 hPa ENE 9.5 km/h 13.0 km/h 71% 0.0 mm CLR
07:49 24.7 °C 19.3 °C 1015.3 hPa NE 10.0 km/h 13.0 km/h 72% 0.0 mm CLR
07:54 24.7 °C 19.3 °C 1015.3 hPa NNE 10.0 km/h 11.1 km/h 72% 0.0 mm CLR
07:59 24.7 °C 19.3 °C 1015.3 hPa NE 8.7 km/h 16.7 km/h 72% 0.0 mm CLR
08:04 24.7 °C 19.6 °C 1015.5 hPa NNE 8.7 km/h 16.7 km/h 73% 0.0 mm CLR
08:09 24.7 °C 19.6 °C 1015.5 hPa ENE 9.5 km/h 19.0 km/h 73% 0.0 mm CLR
08:14 24.7 °C 19.6 °C 1015.5 hPa ENE 9.5 km/h 18.0 km/h 73% 0.0 mm CLR
08:19 24.7 °C 19.8 °C 1015.5 hPa NNE 10.3 km/h 14.8 km/h 74% 0.0 mm CLR
08:24 24.6 °C 19.7 °C 1015.5 hPa NNE 10.3 km/h 13.0 km/h 74% 0.0 mm CLR
08:29 24.6 °C 19.7 °C 1015.5 hPa North 9.5 km/h 13.0 km/h 74% 0.0 mm CLR
08:34 24.6 °C 19.7 °C 1015.7 hPa NE 9.5 km/h 14.8 km/h 74% 0.0 mm CLR
08:39 24.6 °C 19.7 °C 1015.7 hPa North 9.5 km/h 12.2 km/h 74% 0.0 mm CLR
08:44 24.6 °C 19.7 °C 1015.7 hPa NE 9.5 km/h 14.8 km/h 74% 0.0 mm CLR
08:49 24.7 °C 19.6 °C 1015.7 hPa NNE 8.7 km/h 11.1 km/h 73% 0.0 mm CLR
08:54 24.8 °C 19.4 °C 1015.7 hPa NE 8.7 km/h 13.0 km/h 72% 0.0 mm CLR
08:59 24.9 °C 19.5 °C 1015.7 hPa ENE 10.0 km/h 16.7 km/h 72% 0.0 mm CLR
09:04 24.9 °C 19.3 °C 1015.9 hPa NE 10.0 km/h 12.2 km/h 71% 0.0 mm CLR
09:09 25.1 °C 19.4 °C 1015.9 hPa North 8.7 km/h 11.1 km/h 71% 0.0 mm CLR
09:14 25.2 °C 19.3 °C 1015.9 hPa NNE 8.7 km/h 20.4 km/h 70% 0.0 mm CLR
09:19 25.3 °C 19.4 °C 1016.0 hPa NE 9.5 km/h 13.0 km/h 70% 0.0 mm CLR
09:24 25.4 °C 19.6 °C 1016.0 hPa North 9.5 km/h 17.2 km/h 70% 0.0 mm CLR
09:29 25.6 °C 19.5 °C 1016.0 hPa East 10.0 km/h 16.7 km/h 69% 0.0 mm CLR
09:34 25.6 °C 19.5 °C 1016.0 hPa NNE 10.0 km/h 14.8 km/h 69% 0.0 mm CLR
09:39 25.7 °C 19.6 °C 1016.0 hPa NE 11.9 km/h 18.3 km/h 69% 0.0 mm CLR
09:44 25.8 °C 19.7 °C 1016.0 hPa NE 11.9 km/h 20.1 km/h 69% 0.0 mm CLR
09:49 25.9 °C 19.6 °C 1016.0 hPa NNE 14.0 km/h 24.1 km/h 68% 0.0 mm CLR
09:54 26.0 °C 19.6 °C 1016.0 hPa NE 14.0 km/h 25.9 km/h 68% 0.0 mm CLR
09:59 26.1 °C 19.7 °C 1016.0 hPa ENE 16.1 km/h 18.5 km/h 68% 0.0 mm CLR
10:04 26.1 °C 19.7 °C 1016.0 hPa NE 16.1 km/h 20.4 km/h 68% 0.0 mm CLR
10:09 26.1 °C 19.7 °C 1016.0 hPa NE 14.8 km/h 20.9 km/h 68% 0.0 mm CLR
10:14 26.1 °C 19.7 °C 1016.0 hPa NNE 14.8 km/h 27.8 km/h 68% 0.0 mm CLR
10:19 26.0 °C 19.6 °C 1016.1 hPa ENE 18.0 km/h 25.9 km/h 68% 0.0 mm CLR
10:24 26.0 °C 19.9 °C 1016.1 hPa NE 18.0 km/h 18.5 km/h 69% 0.0 mm CLR
10:29 26.1 °C 19.9 °C 1016.1 hPa ENE 14.0 km/h 18.5 km/h 69% 0.0 mm CLR
10:34 26.0 °C 20.6 °C 1016.2 hPa ENE 14.0 km/h 12.2 km/h 72% 0.0 mm CLR
10:39 25.8 °C 20.6 °C 1016.2 hPa NNE 13.0 km/h 18.5 km/h 73% 0.0 mm CLR
10:44 25.7 °C 20.7 °C 1016.2 hPa NNE 13.0 km/h 18.5 km/h 74% 0.0 mm CLR
10:49 25.8 °C 20.8 °C 1016.1 hPa NE 10.3 km/h 20.4 km/h 74% 0.0 mm CLR
10:54 25.7 °C 20.9 °C 1016.1 hPa East 10.3 km/h 16.7 km/h 75% 0.0 mm CLR
10:59 25.6 °C 20.8 °C 1016.1 hPa ENE 11.9 km/h 18.5 km/h 75% 0.0 mm CLR
11:04 25.6 °C 21.1 °C 1016.4 hPa NE 11.9 km/h 31.5 km/h 76% 0.0 mm CLR
11:09 25.4 °C 21.1 °C 1016.4 hPa NE 13.0 km/h 22.2 km/h 77% 0.0 mm CLR
11:14 25.3 °C 21.2 °C 1016.4 hPa NNE 13.0 km/h 18.5 km/h 78% 0.0 mm CLR
11:19 25.1 °C 21.6 °C 1016.3 hPa ENE 13.7 km/h 27.8 km/h 81% 0.0 mm CLR
11:24 24.8 °C 21.5 °C 1016.3 hPa NE 13.7 km/h 24.1 km/h 82% 0.0 mm CLR
11:29 24.8 °C 21.9 °C 1016.3 hPa NE 14.0 km/h 20.4 km/h 84% 0.0 mm CLR
11:34 24.9 °C 21.6 °C 1016.5 hPa NNW 14.0 km/h 27.8 km/h 82% 0.0 mm CLR
11:39 24.7 °C 21.0 °C 1016.5 hPa ENE 17.2 km/h 24.1 km/h 80% 0.0 mm CLR
11:44 24.6 °C 20.7 °C 1016.5 hPa NNE 17.2 km/h 20.4 km/h 79% 0.0 mm CLR
11:49 24.6 °C 20.7 °C 1016.7 hPa NE 18.0 km/h 27.8 km/h 79% 0.0 mm CLR
11:54 24.8 °C 20.9 °C 1016.7 hPa NE 18.0 km/h 25.9 km/h 79% 0.0 mm CLR
11:59 24.9 °C 21.0 °C 1016.7 hPa NNE 15.6 km/h 18.5 km/h 79% 0.0 mm CLR
12:04 25.0 °C 21.1 °C 1016.7 hPa East 15.6 km/h 16.7 km/h 79% 0.0 mm CLR
12:09 24.9 °C 21.2 °C 1016.7 hPa NNE 13.7 km/h 16.7 km/h 80% 0.0 mm CLR
12:14 24.9 °C 21.4 °C 1016.7 hPa NNE 13.7 km/h 16.7 km/h 81% 0.0 mm CLR
12:19 25.1 °C 21.6 °C 1016.4 hPa NE 12.2 km/h 16.7 km/h 81% 0.0 mm CLR
12:24 25.4 °C 20.8 °C 1016.4 hPa NNE 12.2 km/h 33.3 km/h 76% 0.0 mm CLR
12:29 26.1 °C 20.9 °C 1016.4 hPa NE 17.2 km/h 27.8 km/h 73% 0.0 mm CLR
12:34 26.3 °C 21.1 °C 1016.3 hPa NE 17.2 km/h 27.8 km/h 73% 0.0 mm CLR
12:39 26.6 °C 21.1 °C 1016.3 hPa East 20.1 km/h 35.2 km/h 72% 0.0 mm CLR
12:44 26.9 °C 21.2 °C 1016.3 hPa East 20.1 km/h 25.9 km/h 71% 0.0 mm CLR
12:49 26.7 °C 20.8 °C 1016.4 hPa NE 18.0 km/h 31.5 km/h 70% 0.0 mm CLR
12:54 26.6 °C 20.7 °C 1016.4 hPa NNW 18.0 km/h 25.9 km/h 70% 0.0 mm CLR
12:59 26.8 °C 20.4 °C 1016.4 hPa East 16.4 km/h 24.1 km/h 68% 0.0 mm CLR
13:04 26.9 °C 20.3 °C 1016.6 hPa NE 16.4 km/h 27.8 km/h 67% 0.0 mm CLR
13:09 26.8 °C 20.2 °C 1016.6 hPa NE 19.8 km/h 33.3 km/h 67% 0.0 mm CLR
13:14 26.9 °C 20.0 °C 1016.6 hPa ENE 19.8 km/h 30.6 km/h 66% 0.0 mm CLR
13:19 27.0 °C 19.8 °C 1016.5 hPa NNE 19.8 km/h 29.6 km/h 65% 0.0 mm CLR
13:24 27.0 °C 19.8 °C 1016.5 hPa NE 19.8 km/h 35.2 km/h 65% 0.0 mm CLR
13:29 27.2 °C 19.6 °C 1016.5 hPa NE 22.5 km/h 33.3 km/h 63% 0.0 mm CLR
13:34 27.4 °C 20.2 °C 1016.3 hPa NE 22.5 km/h 29.6 km/h 65% 0.0 mm CLR
13:39 27.5 °C 19.3 °C 1016.3 hPa NE 18.3 km/h 27.8 km/h 61% 0.0 mm CLR
13:44 27.7 °C 19.8 °C 1016.3 hPa NE 18.3 km/h 29.6 km/h 62% 0.0 mm CLR
13:49 27.5 °C 19.8 °C 1016.3 hPa North 18.0 km/h 27.8 km/h 63% 0.0 mm CLR
13:54 27.7 °C 19.5 °C 1016.3 hPa NNE 18.0 km/h 27.8 km/h 61% 0.0 mm CLR
13:59 27.9 °C 19.7 °C 1016.3 hPa NE 15.6 km/h 22.2 km/h 61% 0.0 mm CLR
14:04 28.1 °C 19.6 °C 1016.3 hPa NE 15.6 km/h 25.9 km/h 60% 0.0 mm CLR
14:09 28.1 °C 19.6 °C 1016.3 hPa NE 14.0 km/h 27.8 km/h 60% 0.0 mm CLR
14:14 28.1 °C 19.3 °C 1016.3 hPa SE 14.0 km/h 16.7 km/h 59% 0.0 mm CLR
14:19 28.3 °C 19.5 °C 1016.1 hPa NNE 14.0 km/h 27.8 km/h 59% 0.0 mm CLR
14:24 28.3 °C 18.9 °C 1016.1 hPa ENE 14.0 km/h 20.4 km/h 57% 0.0 mm CLR
14:29 28.3 °C 18.9 °C 1016.1 hPa ESE 16.4 km/h 23.7 km/h 57% 0.0 mm CLR
14:34 28.2 °C 19.2 °C 1016.1 hPa SE 16.4 km/h 18.5 km/h 58% 0.0 mm CLR
14:39 28.2 °C 17.7 °C 1016.1 hPa NE 16.4 km/h 27.8 km/h 53% 0.0 mm CLR
14:44 28.2 °C 18.3 °C 1016.1 hPa NE 16.4 km/h 29.6 km/h 55% 0.0 mm CLR
14:49 28.1 °C 18.8 °C 1015.8 hPa ENE 18.0 km/h 27.8 km/h 57% 0.0 mm CLR
14:54 28.3 °C 18.7 °C 1015.8 hPa ENE 18.0 km/h 33.3 km/h 56% 0.0 mm CLR
14:59 28.3 °C 18.4 °C 1015.8 hPa ENE 18.3 km/h 31.5 km/h 55% 0.0 mm CLR
15:04 28.4 °C 18.5 °C 1015.8 hPa ENE 18.3 km/h 22.2 km/h 55% 0.0 mm CLR
15:09 28.6 °C 18.4 °C 1015.8 hPa ENE 14.0 km/h 25.9 km/h 54% 0.0 mm CLR
15:14 28.4 °C 17.6 °C 1015.8 hPa North 14.0 km/h 24.1 km/h 52% 0.0 mm CLR
15:19 28.6 °C 18.1 °C 1015.7 hPa ESE 18.0 km/h 29.6 km/h 53% 0.0 mm CLR
15:24 28.6 °C 17.8 °C 1015.7 hPa NE 18.0 km/h 22.5 km/h 52% 0.0 mm CLR
15:29 28.5 °C 18.0 °C 1015.7 hPa NE 16.4 km/h 30.9 km/h 53% 0.0 mm CLR
15:34 28.5 °C 17.4 °C 1015.5 hPa NNE 16.4 km/h 25.9 km/h 51% 0.0 mm CLR
15:39 28.7 °C 16.3 °C 1015.5 hPa ENE 19.0 km/h 29.1 km/h 47% 0.0 mm CLR
15:44 28.7 °C 17.9 °C 1015.5 hPa SE 19.0 km/h 27.8 km/h 52% 0.0 mm CLR
15:49 28.7 °C 17.2 °C 1015.1 hPa SE 18.3 km/h 25.9 km/h 50% 0.0 mm CLR
15:54 28.7 °C 17.6 °C 1015.1 hPa ENE 18.3 km/h 27.8 km/h 51% 0.0 mm CLR
15:59 28.8 °C 17.3 °C 1015.1 hPa NNE 16.4 km/h 27.8 km/h 50% 0.0 mm CLR
16:04 28.9 °C 17.7 °C 1015.2 hPa NNE 16.4 km/h 25.9 km/h 51% 0.0 mm CLR
16:09 28.7 °C 17.6 °C 1015.2 hPa NNE 16.1 km/h 16.1 km/h 51% 0.0 mm CLR
16:14 28.9 °C 17.7 °C 1015.2 hPa ENE 16.1 km/h 25.9 km/h 51% 0.0 mm CLR
16:19 28.9 °C 17.4 °C 1015.2 hPa ENE 14.8 km/h 22.2 km/h 50% 0.0 mm CLR
16:24 28.9 °C 17.7 °C 1015.2 hPa NNE 14.8 km/h 24.1 km/h 51% 0.0 mm CLR
16:29 28.8 °C 17.7 °C 1015.2 hPa NE 14.8 km/h 29.8 km/h 51% 0.0 mm CLR
16:34 28.7 °C 17.6 °C 1015.1 hPa NE 14.8 km/h 27.4 km/h 51% 0.0 mm CLR
16:39 28.6 °C 17.4 °C 1015.1 hPa NNE 16.4 km/h 25.9 km/h 51% 0.0 mm CLR
16:44 28.7 °C 18.8 °C 1015.1 hPa NNE 16.4 km/h 18.5 km/h 55% 0.0 mm CLR
16:49 28.9 °C 18.1 °C 1015.2 hPa NNE 15.6 km/h 25.9 km/h 52% 0.0 mm CLR
16:54 29.0 °C 18.4 °C 1015.2 hPa NNE 15.6 km/h 33.3 km/h 53% 0.0 mm CLR
16:59 28.8 °C 18.6 °C 1015.2 hPa ESE 16.1 km/h 27.8 km/h 54% 0.0 mm CLR
17:04 28.7 °C 18.5 °C 1015.0 hPa NE 16.1 km/h 38.9 km/h 54% 0.0 mm CLR
17:09 28.6 °C 18.4 °C 1015.0 hPa ENE 16.4 km/h 24.1 km/h 54% 0.0 mm CLR
17:14 28.7 °C 18.8 °C 1015.0 hPa East 16.4 km/h 20.4 km/h 55% 0.0 mm CLR
17:19 28.6 °C 18.7 °C 1014.8 hPa NE 16.4 km/h 33.3 km/h 55% 0.0 mm CLR
17:24 28.4 °C 18.8 °C 1014.8 hPa ENE 16.4 km/h 20.4 km/h 56% 0.0 mm CLR
17:29 28.4 °C 18.8 °C 1014.8 hPa NE 15.6 km/h 22.2 km/h 56% 0.0 mm CLR
17:34 28.3 °C 18.9 °C 1014.8 hPa NE 15.6 km/h 27.8 km/h 57% 0.0 mm CLR
17:39 28.3 °C 18.7 °C 1014.8 hPa NE 16.4 km/h 24.1 km/h 56% 0.0 mm CLR
17:44 28.2 °C 18.6 °C 1014.8 hPa East 16.4 km/h 27.8 km/h 56% 0.0 mm CLR
17:49 28.0 °C 18.9 °C 1014.9 hPa East 16.4 km/h 29.1 km/h 58% 0.0 mm CLR
17:54 27.8 °C 18.8 °C 1014.9 hPa NNE 16.4 km/h 24.1 km/h 58% 0.0 mm CLR
17:59 27.7 °C 18.7 °C 1014.9 hPa NNE 15.6 km/h 22.2 km/h 58% 0.0 mm CLR
18:04 27.7 °C 18.9 °C 1014.9 hPa NNE 15.6 km/h 20.4 km/h 59% 0.0 mm CLR
18:09 27.9 °C 18.9 °C 1014.9 hPa NNE 14.0 km/h 27.8 km/h 58% 0.0 mm CLR
18:14 28.0 °C 18.7 °C 1014.9 hPa SE 14.0 km/h 16.7 km/h 57% 0.0 mm CLR
18:19 28.0 °C 18.7 °C 1014.9 hPa ENE 13.7 km/h 25.9 km/h 57% 0.0 mm CLR
18:24 27.8 °C 18.2 °C 1014.9 hPa East 13.7 km/h 21.7 km/h 56% 0.0 mm CLR
18:29 27.7 °C 18.4 °C 1014.9 hPa NNE 15.6 km/h 33.3 km/h 57% 0.0 mm CLR
18:34 27.6 °C 18.9 °C 1015.1 hPa NNE 15.6 km/h 22.5 km/h 59% 0.0 mm CLR
18:39 27.4 °C 18.9 °C 1015.1 hPa ESE 16.4 km/h 17.2 km/h 60% 0.0 mm CLR
18:44 27.5 °C 19.1 °C 1015.1 hPa NE 16.4 km/h 24.5 km/h 60% 0.0 mm CLR
18:49 27.5 °C 19.1 °C 1015.1 hPa North 16.1 km/h 27.8 km/h 60% 0.0 mm CLR
18:54 27.6 °C 19.1 °C 1015.1 hPa ENE 16.1 km/h 25.9 km/h 60% 0.0 mm CLR
18:59 27.6 °C 19.1 °C 1015.1 hPa NNE 14.0 km/h 18.5 km/h 60% 0.0 mm CLR
19:04 27.4 °C 18.9 °C 1015.1 hPa ENE 14.0 km/h 22.2 km/h 60% 0.0 mm CLR
19:09 27.6 °C 19.1 °C 1015.1 hPa NE 14.0 km/h 14.8 km/h 60% 0.0 mm CLR
19:14 27.5 °C 18.8 °C 1015.1 hPa NE 14.0 km/h 24.1 km/h 59% 0.0 mm CLR
19:19 27.4 °C 18.9 °C 1015.1 hPa North 14.0 km/h 20.4 km/h 60% 0.0 mm CLR
19:24 27.2 °C 18.8 °C 1015.1 hPa NE 14.0 km/h 22.2 km/h 60% 0.0 mm CLR
19:29 27.2 °C 18.8 °C 1015.1 hPa NE 13.7 km/h 24.1 km/h 60% 0.0 mm CLR
19:34 27.1 °C 18.9 °C 1015.2 hPa East 13.7 km/h 25.9 km/h 61% 0.0 mm CLR
19:39 27.1 °C 18.9 °C 1015.2 hPa NE 13.0 km/h 14.8 km/h 61% 0.0 mm CLR
19:44 27.1 °C 18.9 °C 1015.2 hPa NNE 13.0 km/h 24.1 km/h 61% 0.0 mm CLR
19:49 27.1 °C 18.9 °C 1015.2 hPa NE 10.3 km/h 11.1 km/h 61% 0.0 mm CLR
19:54 27.2 °C 19.0 °C 1015.2 hPa NE 10.3 km/h 19.0 km/h 61% 0.0 mm CLR
19:59 27.2 °C 19.3 °C 1015.2 hPa NE 9.5 km/h 14.8 km/h 62% 0.0 mm CLR
20:04 27.1 °C 18.9 °C 1015.4 hPa East 9.5 km/h 16.7 km/h 61% 0.0 mm CLR
20:09 27.0 °C 18.8 °C 1015.4 hPa NE 10.0 km/h 16.7 km/h 61% 0.0 mm CLR
20:14 26.9 °C 18.7 °C 1015.4 hPa SE 10.0 km/h 11.9 km/h 61% 0.0 mm CLR
20:19 26.8 °C 18.9 °C 1015.4 hPa ENE 10.0 km/h 19.8 km/h 62% 0.0 mm CLR
20:24 26.7 °C 19.1 °C 1015.4 hPa NE 10.0 km/h 20.1 km/h 63% 0.0 mm CLR
20:29 26.6 °C 19.0 °C 1015.4 hPa NE 10.3 km/h 16.7 km/h 63% 0.0 mm CLR
20:34 26.6 °C 19.2 °C 1015.6 hPa ENE 10.3 km/h 18.3 km/h 64% 0.0 mm CLR
20:39 26.5 °C 19.1 °C 1015.6 hPa ENE 9.5 km/h 16.1 km/h 64% 0.0 mm CLR
20:44 26.3 °C 19.2 °C 1015.6 hPa NNE 9.5 km/h 18.5 km/h 65% 0.0 mm CLR
20:49 26.2 °C 18.8 °C 1015.8 hPa NE 12.2 km/h 17.2 km/h 64% 0.0 mm CLR
20:54 26.2 °C 18.8 °C 1015.8 hPa ENE 12.2 km/h 11.1 km/h 64% 0.0 mm CLR
20:59 26.2 °C 18.8 °C 1015.8 hPa NNE 10.3 km/h 13.0 km/h 64% 0.0 mm CLR
21:04 26.1 °C 19.2 °C 1015.9 hPa NE 10.3 km/h 14.8 km/h 66% 0.0 mm CLR
21:09 25.9 °C 19.3 °C 1015.9 hPa NE 10.0 km/h 13.7 km/h 67% 0.0 mm CLR
21:14 25.8 °C 19.4 °C 1015.9 hPa NE 10.0 km/h 13.0 km/h 68% 0.0 mm CLR
21:19 25.7 °C 19.3 °C 1016.2 hPa NE 10.3 km/h 16.7 km/h 68% 0.0 mm CLR
21:24 25.6 °C 19.5 °C 1016.2 hPa ENE 10.3 km/h 16.7 km/h 69% 0.0 mm CLR
21:29 25.6 °C 19.5 °C 1016.2 hPa NE 10.0 km/h 9.3 km/h 69% 0.0 mm CLR
21:34 25.5 °C 19.4 °C 1016.4 hPa ENE 10.0 km/h 14.8 km/h 69% 0.0 mm CLR
21:39 25.5 °C 19.4 °C 1016.4 hPa East 9.5 km/h 14.8 km/h 69% 0.0 mm CLR
21:40 25.5 °C 19.4 °C 1016.4 hPa NE 9.7 km/h 14.5 km/h 69% 0.0 mm CLR
21:40 25.5 °C 19.4 °C 1016.4 hPa NE 9.5 km/h 13.0 km/h 69% 0.0 mm CLR
21:45 25.4 °C 19.3 °C 1016.4 hPa East 9.5 km/h 10.3 km/h 69% 0.0 mm CLR
21:50 25.4 °C 19.6 °C 1016.6 hPa ENE 8.4 km/h 13.0 km/h 70% 0.0 mm CLR
21:55 25.3 °C 19.4 °C 1016.6 hPa ENE 8.4 km/h 14.8 km/h 70% 0.0 mm CLR
22:00 25.2 °C 19.3 °C 1016.6 hPa NE 9.7 km/h 16.1 km/h 70% 0.0 mm CLR
22:05 25.2 °C 19.3 °C 1016.8 hPa NE 9.7 km/h 14.5 km/h 70% 0.0 mm CLR
22:10 25.2 °C 19.6 °C 1016.8 hPa NE 9.7 km/h 14.5 km/h 71% 0.0 mm CLR
22:15 25.2 °C 19.6 °C 1016.8 hPa NE 9.7 km/h 11.3 km/h 71% 0.0 mm CLR
22:20 25.2 °C 19.6 °C 1017.0 hPa NE 8.0 km/h 12.9 km/h 71% 0.0 mm CLR
22:25 25.2 °C 19.6 °C 1017.0 hPa NE 8.0 km/h 9.7 km/h 71% 0.0 mm CLR
22:30 25.2 °C 19.6 °C 1017.0 hPa NE 8.0 km/h 11.3 km/h 71% 0.0 mm CLR
22:35 25.1 °C 19.5 °C 1017.1 hPa NE 8.0 km/h 11.3 km/h 71% 0.0 mm CLR
22:40 25.1 °C 19.4 °C 1017.1 hPa NE 8.0 km/h 8.0 km/h 71% 0.0 mm CLR
22:45 25.1 °C 19.7 °C 1017.1 hPa NE 8.0 km/h 9.7 km/h 72% 0.0 mm CLR
22:50 25.1 °C 19.7 °C 1017.2 hPa NE 5.0 km/h 7.4 km/h 72% 0.0 mm CLR
22:55 25.1 °C 19.7 °C 1017.2 hPa NE 4.8 km/h 8.0 km/h 72% 0.0 mm CLR
23:00 25.0 °C 19.6 °C 1017.2 hPa NE 3.2 km/h 9.7 km/h 72% 0.0 mm CLR
23:05 25.0 °C 19.6 °C 1017.4 hPa NE 3.2 km/h 9.7 km/h 72% 0.0 mm CLR
23:10 24.9 °C 19.7 °C 1017.4 hPa NE 4.8 km/h 11.3 km/h 73% 0.0 mm CLR
23:15 24.9 °C 19.7 °C 1017.4 hPa ENE 4.8 km/h 8.0 km/h 73% 0.0 mm CLR
23:20 24.9 °C 19.7 °C 1017.4 hPa ENE 4.8 km/h 9.7 km/h 73% 0.0 mm CLR
23:25 24.8 °C 19.6 °C 1017.4 hPa ENE 4.8 km/h 8.0 km/h 73% 0.0 mm CLR
23:30 24.8 °C 19.6 °C 1017.4 hPa ENE 4.8 km/h 8.0 km/h 73% 0.0 mm CLR
23:35 24.8 °C 19.6 °C 1017.4 hPa NE 4.8 km/h 8.0 km/h 73% 0.0 mm CLR
23:40 24.8 °C 19.6 °C 1017.4 hPa NE 4.8 km/h 9.7 km/h 73% 0.0 mm CLR
23:45 24.8 °C 19.7 °C 1017.4 hPa ENE 4.8 km/h 8.0 km/h 73% 0.0 mm CLR
23:50 24.8 °C 19.6 °C 1017.4 hPa NE 3.2 km/h 8.0 km/h 73% 0.0 mm CLR
23:55 24.8 °C 19.6 °C 1017.4 hPa NE 3.2 km/h 4.8 km/h 73% 0.0 mm CLR
Murcia-Puente Tocinos, España
Compliments of Weather Underground - 2.75 mb

La estación de MeteoMurcia.com, publica sus datos en los siguientes proyectos:

Weather Underground PWS IMURCIAP2 Meteoclimatic www.awekas.at

W3Counter
Web Analytics